1491778800.29,64764,13.81,74138.3,-2.99,-28.97,-29.51,0,*5E
1491778801.55,64765,13.81,74140.0,-2.95,-29.17,-29.73,0,*5A
1491778802.75,64766,13.81,74138.8,-2.99,-29.23,-29.95,0,*5A
1491778804.05,64767,13.81,74138.0,-2.97,-29.35,-30.01,0,*57
1491778805.32,64768,13.81,74140.0,-2.99,-29.35,-30.01,0,*56
1491778806.55,64769,13.81,74136.0,-2.99,-29.29,-29.83,0,*58
1491778807.78,64770,13.81,74138.8,-2.99,-29.29,-29.79,0,*55
1491778809.01,64771,13.81,74136.3,-2.99,-29.29,-29.79,0,*54
1491778810.22,64772,13.81,74138.5,-2.99,-28.97,-29.61,0,*5A
1491778811.44,64773,13.81,74136.0,-2.99,-29.13,-29.79,0,*5F
1491778812.68,64774,13.81,74138.8,-2.99,-29.13,-29.67,0,*57
1491778813.89,64775,13.81,74136.8,-2.99,-29.07,-29.61,0,*55
1491778815.13,64776,13.81,74138.0,-2.99,-29.35,-29.95,0,*5C
1491778816.33,64777,13.81,74140.8,-2.99,-29.23,-29.79,0,*58
1491778817.57,64778,13.81,74140.0,-2.99,-29.35,-30.11,0,*56
1491778818.81,64779,13.81,74142.3,-2.97,-29.45,-29.95,0,*5A
1491778820.04,64780,13.81,74136.8,-2.99,-29.29,-29.79,0,*5A
1491778821.27,64781,13.81,74140.0,-2.99,-29.13,-29.79,0,*52
1491778822.51,64782,13.81,74138.0,-2.99,-29.35,-29.95,0,*57
1491778823.77,64783,13.81,74138.5,-2.97,-29.35,-29.95,0,*58
1491778825.01,64784,13.81,74136.3,-2.99,-29.45,-30.01,0,*53
1491778826.31,64785,13.81,74138.8,-3.01,-29.35,-29.89,0,*5D
1491778827.59,64786,13.81,74140.5,-3.01,-29.17,-29.73,0,*5B
1491778828.83,64787,13.81,74136.8,-3.03,-29.13,-29.67,0,*59
1491778830.09,64788,13.81,74138.0,-3.01,-29.29,-29.83,0,*57
1491778831.33,64789,13.81,74138.8,-2.99,-29.29,-29.83,0,*56
1491778832.62,64790,13.81,74136.8,-3.01,-29.39,-29.89,0,*55
1491778833.89,64791,13.81,74138.0,-3.01,-29.01,-29.57,0,*5C
1491778835.13,64792,13.81,74136.8,-3.03,-29.17,-29.83,0,*53
1491778836.42,64793,13.81,74138.8,-3.01,-29.35,-30.01,0,*52
1491778837.66,64794,13.81,74142.0,-3.03,-29.57,-30.05,0,*57
1491778838.96,64795,13.81,74136.8,-3.01,-29.51,-30.01,0,*56
1491778840.17,64796,13.81,74136.5,-3.03,-29.57,-30.23,0,*51
1491778841.47,64797,13.81,74138.8,-3.01,-29.51,-30.05,0,*50
1491778842.74,64798,13.81,74138.8,-3.01,-29.57,-30.17,0,*5A
1491778844.03,64799,13.81,74140.5,-3.01,-29.51,-30.05,0,*5E
1491778845.3,64800,13.81,74138.3,-3.03,-29.51,-30.05,0,*53
1491778846.57,64801,13.81,74140.0,-3.03,-29.35,-29.89,0,*5C
1491778847.78,64802,13.81,74136.0,-3.03,-29.57,-30.23,0,*53
1491778849.08,64803,13.81,74138.0,-3.01,-29.39,-29.89,0,*50
1491778850.37,64804,13.81,74140.0,-3.01,-29.39,-30.05,0,*5B
1491778851.59,64805,13.81,74140.0,-3.03,-29.67,-30.23,0,*57
1491778852.82,64806,13.81,74138.3,-3.05,-29.57,-30.11,0,*50
1491778854.03,64807,13.81,74138.0,-3.07,-29.61,-30.11,0,*56
1491778855.31,64808,13.81,74136.0,-3.05,-29.39,-30.05,0,*53
1491778856.57,64809,13.81,74138.5,-3.05,-29.39,-29.95,0,*53
1491778857.8,64810,13.81,74142.5,-3.05,-29.23,-29.79,0,*52
1491778859.06,64811,13.81,74140.5,-3.05,-29.23,-29.89,0,*5C
1491778860.32,64812,13.81,74136.3,-3.05,-29.01,-29.57,0,*5C
1491778861.58,64813,13.81,74140.0,-3.05,-28.91,-29.57,0,*55
1491778862.85,64814,13.81,74140.3,-3.07,-28.91,-29.35,0,*54
1491778864.14,64815,13.81,74140.5,-3.05,-28.91,-29.35,0,*57
1491778865.42,64816,13.81,74142.0,-3.05,-29.01,-29.39,0,*50
1491778866.65,64817,13.81,74138.8,-3.03,-29.01,-29.57,0,*5F
1491778867.89,64818,13.81,74136.0,-3.03,-29.29,-29.83,0,*53
1491778869.15,64819,13.81,74136.0,-3.03,-29.17,-29.73,0,*50
1491778870.41,64820,13.81,74142.5,-3.03,-29.17,-29.73,0,*5A
1491778871.67,64821,13.81,74136.5,-3.05,-29.23,-29.89,0,*5F
1491778872.93,64822,13.81,74142.8,-3.05,-29.39,-29.95,0,*5A
1491778874.14,64823,13.81,74142.3,-3.07,-29.45,-29.95,0,*52
1491778875.4,64824,13.81,74138.0,-3.05,-29.45,-30.05,0,*56
1491778876.64,64825,13.81,74138.5,-3.07,-29.51,-30.27,0,*50
1491778877.9,64826,13.81,74138.3,-3.05,-29.39,-30.11,0,*5A
1491778879.14,64827,13.81,74136.0,-3.05,-29.57,-30.23,0,*52
1491778880.37,64828,13.81,74136.5,-3.05,-29.57,-30.11,0,*5C
1491778881.61,64829,13.81,74138.3,-3.05,-29.57,-30.23,0,*5C
1491778882.82,64830,13.81,74142.5,-3.07,-29.61,-30.27,0,*57
1491778884.06,64831,13.81,74138.8,-3.07,-29.61,-30.17,0,*55
1491778885.3,64832,13.81,74136.5,-3.07,-29.61,-30.01,0,*51
1491778886.54,64833,13.81,74138.8,-3.07,-29.51,-29.95,0,*56
1491778887.84,64834,13.81,74136.5,-3.09,-29.51,-30.17,0,*5D
1491778889.05,64835,13.81,74136.0,-3.07,-29.61,-30.27,0,*52
1491778890.29,64836,13.81,74138.3,-3.09,-29.61,-30.11,0,*5A
1491778891.5,64837,13.81,74136.0,-3.07,-29.67,-30.27,0,*56
1491778892.73,64838,13.81,74136.0,-3.09,-29.61,-30.11,0,*54
1491778894.03,64839,13.81,74136.8,-3.09,-29.51,-30.17,0,*50
1491778895.3,64840,13.81,74136.0,-3.09,-29.51,-30.11,0,*58
1491778896.57,64841,13.81,74138.8,-3.09,-29.39,-29.95,0,*53
1491778897.8,64842,13.81,74136.8,-3.11,-29.13,-29.83,0,*56
1491778899.07,64843,13.81,74138.5,-3.11,-29.35,-29.89,0,*59
1491778900.34,64844,13.81,74136.0,-3.11,-29.51,-30.17,0,*53
1491778901.61,64845,13.81,74136.8,-3.11,-29.51,-30.05,0,*51
1491778902.82,64846,13.81,74138.3,-3.11,-29.67,-30.33,0,*52
1491778904.07,64847,13.81,74138.8,-3.11,-29.57,-30.17,0,*56
1491778905.34,64848,13.81,74138.8,-3.11,-29.51,-30.17,0,*5F
1491778906.55,64849,13.81,74136.5,-3.11,-29.67,-30.23,0,*5C
1491778907.79,64850,13.81,74138.3,-3.13,-29.57,-30.23,0,*55
1491778909.06,64851,13.81,74138.5,-3.13,-29.57,-30.17,0,*53
1491778910.3,64852,13.81,74138.5,-3.09,-29.45,-30.11,0,*5E
1491778911.58,64853,13.81,74132.5,-3.13,-29.51,-30.05,0,*54
1491778912.88,64854,13.81,74138.0,-3.13,-29.51,-30.17,0,*50
1491778914.11,64855,13.81,74138.0,-3.17,-29.61,-30.23,0,*51
1491778915.4,64856,13.81,74136.8,-3.13,-29.51,-30.05,0,*51
1491778916.67,64857,13.81,74142.0,-3.11,-29.51,-30.05,0,*52
1491778917.96,64858,13.81,74138.8,-3.13,-29.51,-30.17,0,*5C
1491778919.23,64859,13.81,74138.5,-3.17,-29.51,-30.11,0,*5F
1491778920.47,64860,13.81,74136.8,-3.17,-29.57,-30.27,0,*56
1491778921.7,64861,13.81,74136.0,-3.17,-29.61,-30.23,0,*56
1491778922.93,64862,13.81,74136.8,-3.17,-29.61,-30.11,0,*54
1491778924.19,64863,13.81,74138.3,-3.13,-29.51,-30.11,0,*52
1491778925.41,64864,13.81,74134.8,-3.19,-29.57,-30.11,0,*59
1491778926.62,64865,13.81,74138.0,-3.19,-29.57,-30.11,0,*58
1491778927.85,64866,13.81,74138.5,-3.17,-29.57,-30.11,0,*55
1491778929.09,64867,13.81,74136.5,-3.17,-29.57,-30.23,0,*55
1491778930.33,64868,13.81,74136.0,-3.17,-29.57,-30.23,0,*5A
1491778931.56,64869,13.81,74136.0,-3.19,-29.73,-30.27,0,*57
1491778932.78,64870,13.81,74136.5,-3.19,-29.57,-30.23,0,*5D
1491778934.01,64871,13.81,74134.8,-3.21,-29.61,-30.27,0,*56
1491778935.25,64872,13.81,74138.8,-3.19,-29.39,-30.11,0,*56
1491778936.49,64873,13.81,74136.5,-3.21,-29.61,-30.23,0,*50
1491778937.7,64874,13.81,74142.0,-3.19,-29.57,-30.11,0,*58
1491778938.97,64875,13.81,74136.8,-3.21,-29.67,-30.17,0,*57
1491778940.24,64876,13.81,74136.0,-3.21,-29.61,-30.17,0,*52
1491778941.51,64877,13.81,74138.3,-3.21,-29.61,-30.17,0,*53
1491778942.77,64878,13.81,74138.5,-3.21,-29.61,-30.17,0,*5C
1491778944.04,64879,13.81,74138.0,-3.21,-29.45,-30.01,0,*5C
1491778945.28,64880,13.81,74136.5,-3.21,-29.57,-30.11,0,*58
1491778946.52,64881,13.81,74138.0,-3.21,-29.57,-30.11,0,*59
1491778947.73,64882,13.81,74136.5,-3.23,-29.57,-30.11,0,*58
1491778948.96,64883,13.81,74136.8,-3.21,-29.61,-30.27,0,*5B
1491778950.21,64884,13.81,74136.0,-3.23,-29.57,-30.17,0,*58
1491778951.45,64885,13.81,74136.8,-3.23,-29.57,-30.17,0,*59
1491778952.69,64886,13.81,74138.0,-3.23,-29.57,-30.17,0,*5A
1491778953.93,64887,13.81,74138.0,-3.23,-29.57,-30.17,0,*5B
1491778955.2,64888,13.81,74136.8,-3.25,-29.61,-30.17,0,*57
1491778956.4,64889,13.81,74136.0,-3.23,-29.57,-30.11,0,*53
1491778957.61,64890,13.81,74138.5,-3.23,-29.45,-30.11,0,*58
1491778958.88,64891,13.81,74138.0,-3.25,-29.61,-30.17,0,*5F
1491778960.14,64892,13.81,74138.3,-3.25,-29.61,-30.17,0,*5C
1491778961.41,64893,13.81,74138.3,-3.25,-29.61,-30.17,0,*5D
1491778962.62,64894,13.81,74138.5,-3.23,-29.45,-30.11,0,*5C
1491778963.88,64895,13.81,74136.5,-3.25,-29.73,-30.33,0,*5E
1491778965.12,64896,13.81,74136.8,-3.25,-29.67,-30.33,0,*58
1491778966.37,64897,13.81,74132.5,-3.27,-29.73,-30.39,0,*54
1491778967.63,64898,13.81,74136.5,-3.25,-29.73,-30.33,0,*53
1491778968.86,64899,13.75,74132.5,-3.27,-29.73,-30.27,0,*55
1491778970.09,64900,13.81,74138.8,-3.27,-29.73,-30.27,0,*54
1491778971.3,64901,13.81,74136.8,-3.27,-29.67,-30.27,0,*50
1491778972.51,64902,13.81,74138.8,-3.27,-29.67,-30.27,0,*53
1491778973.72,64903,13.81,74138.5,-3.27,-29.67,-30.23,0,*56
1491778974.98,64904,13.81,74136.5,-3.29,-29.73,-30.27,0,*5E
1491778976.21,64905,13.81,74138.5,-3.29,-29.57,-30.11,0,*5C
1491778977.45,64906,13.81,74138.8,-3.29,-29.57,-30.23,0,*5E
1491778978.66,64907,13.81,74136.0,-3.27,-29.67,-30.23,0,*52
1491778979.9,64908,13.81,74134.5,-3.29,-29.57,-30.11,0,*51
1491778981.16,64909,13.81,74140.0,-3.33,-29.23,-29.73,0,*54
1491778982.42,64910,13.81,74140.0,-3.27,-28.91,-29.51,0,*51
1491778983.65,64911,13.75,74132.5,-3.27,-29.23,-29.73,0,*58
1491778984.91,64912,13.81,74138.5,-3.29,-29.17,-29.57,0,*54
1491778986.17,64913,13.81,74134.8,-3.29,-29.23,-29.89,0,*51
1491778987.38,64914,13.81,74138.0,-3.27,-29.67,-30.23,0,*50
1491778988.62,64915,13.81,74142.5,-3.29,-29.57,-30.11,0,*5D
1491778989.88,64916,13.81,74138.3,-3.25,-29.45,-30.01,0,*50
1491778991.12,64917,13.81,74138.5,-3.27,-29.51,-30.11,0,*57
1491778992.36,64918,13.81,74136.5,-3.33,-29.61,-30.27,0,*5B
1491778993.59,64919,13.81,74134.3,-3.29,-29.57,-30.11,0,*51
1491778994.85,64920,13.81,74138.0,-3.29,-29.51,-30.11,0,*5D
1491778996.12,64921,13.81,74136.5,-3.29,-29.23,-29.89,0,*50
1491778997.38,64922,13.81,74136.8,-3.29,-29.51,-30.11,0,*5F
1491778998.65,64923,13.81,74138.0,-3.33,-29.45,-30.17,0,*56
1491778999.91,64924,13.81,74138.0,-3.29,-29.51,-30.11,0,*59
1491779001.15,64925,13.81,74138.3,-3.33,-29.57,-30.11,0,*55
1491779002.4,64926,13.81,74132.8,-3.35,-29.61,-30.17,0,*53
1491779003.67,64927,13.81,74138.3,-3.33,-29.61,-30.17,0,*54
1491779004.91,64928,13.81,74134.3,-3.33,-29.57,-30.11,0,*58
1491779006.12,64929,13.81,74138.0,-3.35,-29.57,-30.11,0,*5F
1491779007.39,64930,13.81,74138.3,-3.33,-29.57,-30.17,0,*57
1491779008.61,64931,13.81,74136.8,-3.35,-29.57,-30.27,0,*53
1491779009.86,64932,13.81,74138.3,-3.35,-29.57,-30.17,0,*53
1491779011.09,64933,13.81,74138.8,-3.33,-29.23,-29.79,0,*57
1491779012.36,64934,13.81,74136.3,-3.33,-29.45,-30.01,0,*57
1491779013.6,64935,13.81,74136.3,-3.33,-29.57,-30.11,0,*54
1491779014.81,64936,13.75,74132.5,-3.35,-29.23,-29.95,0,*56
1491779016.02,64937,13.75,74134.5,-3.35,-28.97,-29.57,0,*57
1491779017.26,64938,13.75,74134.8,-3.33,-28.97,-29.45,0,*5D
1491779018.5,64939,13.81,74134.3,-3.35,-28.79,-29.57,0,*59
1491779019.79,64940,13.81,74136.0,-3.29,-28.91,-29.51,0,*5A
1491779021.05,64941,13.81,74136.3,-3.33,-29.07,-29.73,0,*5E
1491779022.29,64942,13.81,74136.0,-3.35,-29.29,-29.95,0,*5F
1491779023.52,64943,13.81,74136.8,-3.35,-29.73,-30.27,0,*50
1491779024.76,64944,13.81,74136.3,-3.33,-29.61,-30.27,0,*52
1491779025.98,64945,13.75,74132.3,-3.35,-29.45,-30.11,0,*56
1491779027.22,64946,13.81,74134.0,-3.35,-29.45,-30.17,0,*53
1491779028.44,64947,13.81,74134.8,-3.35,-29.61,-30.27,0,*57
1491779029.68,64948,13.81,74136.0,-3.33,-29.45,-30.11,0,*5D
1491779030.89,64949,13.81,74136.8,-3.35,-29.45,-30.11,0,*5A
1491779032.16,64950,13.81,74138.3,-3.33,-29.45,-30.01,0,*55
1491779033.37,64951,13.81,74136.0,-3.35,-29.57,-30.11,0,*50
1491779034.65,64952,13.81,74134.0,-3.33,-29.57,-30.17,0,*53
1491779035.92,64953,13.81,74138.0,-3.33,-29.57,-30.17,0,*52
1491779037.16,64954,13.81,74138.3,-3.35,-29.61,-30.17,0,*56
1491779038.42,64955,13.81,74142.0,-3.35,-29.13,-29.73,0,*58
1491779039.66,64956,13.81,74138.0,-3.33,-28.97,-29.45,0,*55
1491779040.92,64957,13.81,74138.0,-3.35,-28.75,-29.39,0,*55
1491779042.17,64958,13.81,74132.0,-3.35,-28.75,-29.29,0,*5B
1491779043.42,64959,13.81,74138.8,-3.33,-28.75,-29.23,0,*56
1491779044.69,64960,13.81,74136.0,-3.29,-28.91,-29.57,0,*5E
1491779045.98,64961,13.81,74134.3,-3.33,-29.39,-30.01,0,*5C
1491779047.24,64962,13.81,74136.0,-3.33,-29.29,-29.95,0,*5B
1491779048.48,64963,13.81,74136.8,-3.35,-29.29,-29.95,0,*5C
1491779049.72,64964,13.81,74136.0,-3.35,-28.91,-29.45,0,*54
1491779051.01,64965,13.81,74132.8,-3.33,-28.91,-29.39,0,*58
1491779052.24,64966,13.81,74138.5,-3.33,-29.23,-29.95,0,*55
1491779053.48,64967,13.81,74138.0,-3.33,-29.57,-30.11,0,*53
1491779054.72,64968,13.81,74132.8,-3.33,-29.45,-30.11,0,*5F
1491779055.96,64969,13.81,74134.3,-3.33,-29.57,-30.11,0,*5D
1491779057.17,64970,13.81,74132.5,-3.35,-29.57,-30.11,0,*53
1491779058.39,64971,13.81,74132.0,-3.35,-29.57,-30.11,0,*52
1491779059.6,64972,13.81,74136.0,-3.35,-29.45,-30.11,0,*52
1491779060.85,64973,13.81,74136.3,-3.35,-29.45,-30.01,0,*52
1491779062.15,64974,13.81,74132.5,-3.37,-29.51,-30.17,0,*55
1491779063.45,64975,13.81,74136.0,-3.37,-29.51,-30.17,0,*54
1491779064.71,64976,13.81,74134.5,-3.37,-29.29,-29.83,0,*5D
1491779065.98,64977,13.81,74132.5,-3.39,-29.51,-30.17,0,*58
1491779067.22,64978,13.81,74134.0,-3.35,-29.39,-30.11,0,*53
1491779068.49,64979,13.81,74136.5,-3.37,-29.61,-30.17,0,*5B
1491779069.73,64980,13.81,74138.0,-3.37,-29.67,-30.33,0,*5D
1491779071.02,64981,13.81,74136.0,-3.37,-29.51,-30.05,0,*5C
1491779072.32,64982,13.81,74134.0,-3.37,-29.51,-30.05,0,*5F
1491779073.58,64983,13.81,74132.5,-3.37,-29.45,-30.05,0,*5B
1491779074.84,64984,13.81,74134.8,-3.37,-29.13,-29.67,0,*53
1491779076.07,64985,13.81,74138.8,-3.39,-29.17,-29.79,0,*57
1491779077.34,64986,13.81,74136.0,-3.37,-29.35,-29.83,0,*5F
1491779078.59,64987,13.81,74136.3,-3.37,-29.29,-29.79,0,*56
1491779079.86,64988,13.81,74136.5,-3.37,-29.17,-29.83,0,*51
1491779081.13,64989,13.81,74136.8,-3.37,-29.35,-29.83,0,*50
1491779082.43,64990,13.81,74134.5,-3.37,-29.51,-30.17,0,*5F
1491779083.65,64991,13.81,74138.8,-3.39,-29.17,-29.79,0,*52
1491779084.92,64992,13.81,74134.8,-3.37,-29.01,-29.67,0,*57
1491779086.18,64993,13.81,74136.0,-3.37,-28.97,-29.51,0,*5D
1491779087.48,64994,13.75,74134.3,-3.37,-29.35,-30.01,0,*5E
1491779088.74,64995,13.81,74136.5,-3.37,-29.13,-29.61,0,*55
1491779089.95,64996,13.75,74134.3,-3.35,-29.07,-29.57,0,*54
1491779091.21,64997,13.81,74136.3,-3.37,-29.29,-29.79,0,*57
1491779092.45,64998,13.81,74136.0,-3.39,-29.45,-30.17,0,*5C
1491779093.71,64999,13.81,74136.5,-3.39,-29.51,-30.05,0,*5B
1491779094.98,65000,13.81,74132.8,-3.39,-29.51,-30.17,0,*50
1491779096.22,65001,13.81,74138.0,-3.39,-29.51,-30.23,0,*56
1491779097.49,65002,13.81,74138.0,-3.37,-29.51,-30.23,0,*5B
1491779098.73,65003,13.81,74134.3,-3.39,-29.45,-30.01,0,*51
1491779100.02,65004,13.81,74136.0,-3.37,-29.51,-30.05,0,*59
1491779101.29,65005,13.81,74136.5,-3.39,-29.51,-30.17,0,*55
1491779102.56,65006,13.75,74134.3,-3.37,-29.61,-30.17,0,*5B
1491779103.82,65007,13.81,74138.8,-3.37,-29.45,-30.05,0,*5F
1491779105.08,65008,13.81,74134.8,-3.39,-29.35,-30.05,0,*59
1491779106.32,65009,13.81,74138.0,-3.39,-29.35,-29.83,0,*5E
1491779107.61,65010,13.81,74132.0,-3.43,-29.39,-30.05,0,*51
1491779108.87,65011,13.81,74136.3,-3.37,-29.29,-29.79,0,*51
1491779110.1,65012,13.81,74138.5,-3.39,-29.35,-29.79,0,*51
1491779111.33,65013,13.75,74132.3,-3.39,-29.29,-29.79,0,*5D
1491779112.59,65014,13.81,74138.3,-3.39,-29.35,-30.01,0,*50
1491779113.86,65015,13.81,74138.0,-3.39,-29.51,-30.17,0,*54
1491779115.13,65016,13.81,74134.3,-3.39,-29.51,-30.01,0,*50
1491779116.39,65017,13.81,74136.5,-3.39,-29.35,-30.01,0,*53
1491779117.68,65018,13.81,74134.3,-3.43,-29.51,-30.05,0,*57
1491779118.92,65019,13.81,74134.3,-3.39,-29.35,-29.83,0,*5F
1491779120.16,65020,13.81,74132.8,-3.39,-29.45,-30.01,0,*50
1491779121.4,65021,13.81,74136.3,-3.39,-29.45,-30.01,0,*51
1491779122.68,65022,13.81,74134.0,-3.43,-29.39,-30.05,0,*50
1491779123.92,65023,13.81,74138.0,-3.45,-29.61,-30.17,0,*59
1491779125.16,65024,13.75,74132.0,-3.45,-29.57,-30.17,0,*5B
1491779126.4,65025,13.81,74132.5,-3.45,-29.57,-30.17,0,*5A
1491779127.61,65026,13.81,74134.5,-3.45,-28.97,-29.57,0,*58
1491779128.9,65027,13.81,74134.0,-3.43,-28.91,-29.51,0,*5F
1491779130.12,65028,13.81,74136.3,-3.45,-29.29,-29.79,0,*5E
1491779131.35,65029,13.81,74132.3,-3.39,-29.17,-29.79,0,*59
1491779132.63,65030,13.81,74134.3,-3.43,-29.35,-30.05,0,*5F
1491779133.93,65031,13.81,74134.8,-3.43,-29.35,-29.89,0,*52
1491779135.21,65032,13.81,74132.8,-3.43,-29.17,-29.73,0,*54
1491779136.49,65033,13.81,74134.8,-3.43,-29.35,-30.05,0,*5C
1491779137.75,65034,13.81,74132.0,-3.43,-29.35,-30.11,0,*5E
1491779139.01,65035,13.81,74138.8,-3.43,-29.17,-29.57,0,*55
1491779140.24,65036,13.81,74138.8,-3.45,-28.85,-29.29,0,*53
1491779141.46,65037,13.81,74136.3,-3.43,-28.69,-29.23,0,*5C
1491779142.72,65038,13.81,74132.3,-3.43,-28.69,-29.35,0,*54
1491779144.0,65039,13.75,74134.3,-3.43,-28.79,-29.35,0,*54
1491779145.23,65040,13.81,74136.5,-3.39,-29.01,-29.79,0,*51
1491779146.47,65041,13.81,74134.8,-3.39,-29.17,-29.83,0,*52
1491779147.7,65042,13.81,74132.5,-3.39,-29.45,-30.01,0,*54
1491779149.0,65043,13.81,74134.3,-3.43,-29.39,-29.89,0,*5B
1491779150.23,65044,13.81,74132.8,-3.43,-29.23,-29.83,0,*5D
1491779151.46,65045,13.81,74136.5,-3.39,-29.17,-29.67,0,*5C
1491779152.69,65046,13.75,74134.3,-3.39,-29.13,-29.61,0,*5D
1491779153.97,65047,13.81,74136.0,-3.43,-29.17,-29.73,0,*56
1491779155.2,65048,13.75,74130.5,-3.39,-29.29,-29.79,0,*53
1491779156.46,65049,13.81,74132.8,-3.39,-29.35,-30.01,0,*58
1491779157.75,65050,13.81,74134.5,-3.43,-29.39,-30.05,0,*55
1491779159.04,65051,13.81,74132.5,-3.43,-29.51,-30.05,0,*5A
1491779160.25,65052,13.81,74136.0,-3.45,-29.57,-29.95,0,*58
1491779161.48,65053,13.81,74138.3,-3.45,-29.35,-29.95,0,*5D
1491779162.75,65054,13.81,74136.3,-3.43,-29.39,-29.83,0,*57
1491779163.98,65055,13.81,74136.3,-3.43,-29.23,-29.83,0,*5D
1491779165.25,65056,13.81,74136.0,-3.43,-29.39,-29.83,0,*55
1491779166.48,65057,13.75,74132.5,-3.43,-29.07,-29.67,0,*53
1491779167.69,65058,13.81,74136.8,-3.45,-29.07,-29.67,0,*5A
1491779168.95,65059,13.81,74136.8,-3.43,-29.01,-29.67,0,*5B
1491779170.21,65060,13.81,74132.3,-3.43,-29.35,-29.83,0,*5C
1491779171.45,65061,13.81,74134.0,-3.45,-29.39,-29.95,0,*50
1491779172.66,65062,13.81,74132.5,-3.45,-29.45,-29.95,0,*58
1491779173.87,65063,13.81,74132.0,-3.45,-29.57,-29.95,0,*5A
1491779175.16,65064,13.75,74134.5,-3.43,-29.39,-29.89,0,*5E
1491779176.37,65065,13.81,74138.3,-3.45,-29.57,-29.95,0,*5C
1491779177.66,65066,13.81,74138.5,-3.43,-29.39,-29.89,0,*5C
1491779178.87,65067,13.81,74138.3,-3.45,-29.57,-30.27,0,*5F
1491779180.11,65068,13.81,74138.3,-3.45,-29.57,-30.17,0,*53
1491779181.34,65069,13.81,74134.8,-3.43,-29.57,-30.11,0,*52
1491779182.57,65070,13.81,74136.5,-3.45,-29.29,-29.95,0,*51
1491779183.81,65071,13.75,74134.8,-3.45,-29.39,-29.95,0,*51
1491779185.06,65072,13.81,74134.3,-3.45,-29.29,-29.89,0,*5E
1491779186.3,65073,13.81,74132.0,-3.45,-29.39,-29.95,0,*53
1491779187.56,65074,13.75,74134.3,-3.45,-29.29,-29.89,0,*58
1491779188.78,65075,13.75,74134.0,-3.45,-29.29,-29.95,0,*54
1491779190.03,65076,13.81,74134.3,-3.47,-29.29,-29.79,0,*57
1491779191.29,65077,13.75,74134.0,-3.47,-29.39,-29.95,0,*55
1491779192.5,65078,13.81,74134.5,-3.45,-29.45,-30.11,0,*57
1491779193.76,65079,13.75,74134.8,-3.43,-29.23,-29.89,0,*59
1491779194.98,65080,13.81,74132.5,-3.45,-29.29,-29.79,0,*5C
1491779196.21,65081,13.81,74136.3,-3.47,-29.45,-30.11,0,*53
1491779197.46,65082,13.75,74134.5,-3.47,-29.39,-29.79,0,*5D
1491779198.68,65083,13.81,74132.8,-3.49,-29.45,-29.95,0,*5B
1491779199.96,65084,13.81,74132.5,-3.47,-29.29,-29.89,0,*55
1491779201.24,65085,13.75,74134.0,-3.47,-29.29,-29.89,0,*54
1491779202.5,65086,13.75,74130.5,-3.47,-29.39,-29.95,0,*5B
1491779203.76,65087,13.75,74132.0,-3.47,-29.39,-29.95,0,*5A
1491779205.0,65088,13.75,74134.3,-3.47,-29.29,-29.79,0,*56
1491779206.23,65089,13.81,74132.5,-3.49,-29.17,-29.95,0,*56
1491779207.49,65090,13.81,74134.3,-3.47,-29.23,-29.73,0,*5F
1491779208.77,65091,13.81,74136.0,-3.47,-29.29,-29.89,0,*51
1491779210.0,65092,13.75,74132.3,-3.49,-29.29,-29.83,0,*56
1491779211.28,65093,13.75,74134.0,-3.47,-29.13,-29.73,0,*5F
1491779212.5,65094,13.81,74136.5,-3.47,-29.23,-29.79,0,*51
1491779213.75,65095,13.81,74134.5,-3.49,-29.35,-29.83,0,*5C
1491779215.0,65096,13.81,74136.5,-3.47,-29.23,-29.89,0,*5C
1491779216.25,65097,13.75,74132.0,-3.47,-29.29,-29.79,0,*58
1491779217.5,65098,13.75,74134.0,-3.47,-29.29,-29.79,0,*57
1491779218.73,65099,13.75,74134.3,-3.49,-29.29,-29.79,0,*58
1491779219.95,65100,13.75,74134.3,-3.47,-29.23,-29.79,0,*5D
1491779221.2,65101,13.81,74134.5,-3.47,-29.29,-29.79,0,*56
1491779222.45,65102,13.75,74132.3,-3.47,-29.23,-29.73,0,*55
1491779223.74,65103,13.81,74136.8,-3.47,-29.39,-29.89,0,*5A
1491779224.98,65104,13.81,74138.3,-3.47,-29.29,-29.79,0,*53
1491779226.27,65105,13.75,74132.0,-3.47,-29.39,-29.89,0,*5C
1491779227.56,65106,13.75,74134.3,-3.47,-29.39,-29.89,0,*5F
1491779228.85,65107,13.75,74132.5,-3.47,-29.39,-29.89,0,*5E
1491779230.1,65108,13.81,74136.3,-3.47,-29.29,-29.79,0,*5F
1491779231.32,65109,13.81,74138.3,-3.45,-29.13,-29.79,0,*55
1491779232.6,65110,13.81,74136.5,-3.47,-29.13,-29.89,0,*50
1491779233.89,65111,13.75,74134.5,-3.47,-29.39,-29.89,0,*59
1491779235.12,65112,13.81,74132.8,-3.49,-29.29,-29.95,0,*58
1491779236.36,65113,13.81,74136.0,-3.49,-29.29,-29.83,0,*5E
1491779237.6,65114,13.81,74134.3,-3.49,-29.35,-29.95,0,*53
1491779238.85,65115,13.81,74134.3,-3.47,-29.39,-29.95,0,*50
1491779240.1,65116,13.81,74134.5,-3.47,-29.13,-29.79,0,*59
1491779241.35,65117,13.75,74132.5,-3.47,-29.29,-29.79,0,*51
1491779242.6,65118,13.81,74136.0,-3.47,-29.29,-30.11,0,*58
1491779243.87,65119,13.75,74132.5,-3.49,-29.51,-30.17,0,*5E
1491779245.1,65120,13.81,74134.3,-3.47,-29.23,-29.61,0,*56
1491779246.35,65121,13.81,74132.0,-3.47,-29.23,-29.73,0,*54
1491779247.57,65122,13.81,74138.8,-3.47,-29.07,-29.61,0,*52
1491779248.8,65123,13.75,74132.8,-3.47,-29.23,-29.79,0,*5C
1491779250.07,65124,13.81,74134.5,-3.49,-29.39,-30.01,0,*59
1491779251.31,65125,13.81,74132.3,-3.49,-29.45,-30.01,0,*53
1491779252.54,65126,13.75,74132.5,-3.47,-29.45,-30.11,0,*5F
1491779253.81,65127,13.75,74132.0,-3.49,-29.51,-30.17,0,*53
1491779255.04,65128,13.81,74134.5,-3.47,-29.45,-30.11,0,*51
1491779256.27,65129,13.75,74134.5,-3.47,-29.57,-30.27,0,*56
1491779257.56,65130,13.75,74134.3,-3.47,-29.39,-29.89,0,*5A
1491779258.85,65131,13.81,74136.0,-3.47,-29.39,-29.89,0,*5B
1491779260.09,65132,13.81,74132.0,-3.49,-29.45,-30.01,0,*55
1491779261.36,65133,13.81,74136.8,-3.49,-29.51,-30.01,0,*51
1491779262.6,65134,13.75,74134.5,-3.49,-29.35,-29.83,0,*56
1491779263.86,65135,13.81,74132.0,-3.47,-29.23,-29.89,0,*54
1491779265.09,65136,13.81,74136.0,-3.49,-29.29,-29.79,0,*5C
1491779266.32,65137,13.75,74134.0,-3.49,-29.35,-29.79,0,*50
1491779267.55,65138,13.75,74134.3,-3.49,-29.29,-29.95,0,*50
1491779268.83,65139,13.81,74134.3,-3.49,-29.51,-30.17,0,*5C
1491779270.06,65140,13.81,74132.8,-3.49,-29.29,-29.95,0,*5F
1491779271.31,65141,13.81,74132.8,-3.47,-29.23,-29.73,0,*52
1491779272.53,65142,13.81,74132.0,-3.49,-29.45,-29.83,0,*50
1491779273.76,65143,13.81,74134.3,-3.49,-29.29,-29.83,0,*5B
1491779275.0,65144,13.75,74132.3,-3.49,-29.45,-30.17,0,*53
1491779276.27,65145,13.81,74132.5,-3.49,-29.51,-30.01,0,*50
1491779277.52,65146,13.75,74132.8,-3.47,-29.29,-29.95,0,*57
1491779278.76,65147,13.81,74134.5,-3.49,-29.35,-29.95,0,*55
1491779280.01,65148,13.81,74136.3,-3.49,-29.35,-29.83,0,*5D
1491779281.24,65149,13.75,74132.3,-3.49,-29.29,-29.83,0,*51
1491779282.48,65150,13.75,74134.5,-3.49,-29.29,-29.83,0,*59
1491779283.72,65151,13.81,74136.5,-3.47,-29.29,-29.79,0,*53
1491779284.98,65152,13.75,74134.8,-3.47,-29.39,-29.79,0,*51
1491779286.22,65153,13.75,74134.0,-3.49,-29.35,-29.83,0,*57
1491779287.46,65154,13.75,74132.3,-3.49,-29.29,-29.83,0,*5D
1491779288.69,65155,13.75,74132.3,-3.49,-29.01,-29.61,0,*5A
1491779289.94,65156,13.81,74132.0,-3.47,-29.07,-29.73,0,*52
1491779291.18,65157,13.81,74134.8,-3.49,-29.17,-29.83,0,*53
1491779292.42,65158,13.81,74132.8,-3.49,-29.35,-29.95,0,*5B
1491779293.7,65159,13.75,74134.0,-3.47,-29.29,-29.89,0,*54
1491779294.94,65160,13.81,74136.0,-3.49,-29.35,-29.95,0,*50
1491779296.18,65161,13.75,74132.5,-3.49,-29.35,-29.95,0,*51
1491779297.42,65162,13.75,74132.0,-3.49,-29.35,-29.95,0,*52
1491779298.63,65163,13.75,74134.8,-3.49,-29.45,-29.95,0,*54